Location: Kirkland Lake
(48.1510°N, 80.0330°W)
Time: 08:32:29
(UTC-04:00)

ISS - Pass Details

Date: 22 April 2026
Orbit: 414 x 424 km, 51.6° (Epoch: 18 May)

Event Time Altitude Azimuth Distance (km) Brightness Sun altitude
Exits shadow 05:40:46 - 244° (WSW) 1,613 -1.5 -6.4°
Reaches altitude 10° 05:41:03 10° 244° (WSW) 1,496 -1.7 -6.4°
Maximum altitude 05:44:24 85° 159° (SSE) 427 -3.7 -5.9°
Drops below altitude 10° 05:47:48 10° 68° (ENE) 1,509 1.0 -5.4°
Sets 05:49:55 0° 68° (ENE) 2,379 3.1 -5.0°
